Regional Weather Roundup
Issued by NWS

Home | Current Version | Previous Version | Text Only | Print | Product List | Glossary On
Versions: 1 2 3 4 5 6 7 8 9 10 11 12 13 14 15 16 17 18 19 20 21 22 23 24 25 26 27
000
ASUS45 KCYS 300110
RWRWY

WYOMING REGIONAL WEATHER ROUNDUP
NATIONAL WEATHER SERVICE CHEYENNE WY
700 PM MDT MON AUG 29 2016

NOTE:  "FAIR" INDICATES FEW OR NO CLOUDS BELOW 12,000 FEET
WITH NO SIGNIFICANT WEATHER AND/OR OBSTRUCTIONS TO VISIBILITY.

WYZ001-300200-
YELLOWSTONE NATIONAL PARK

CITY           SKY/WX    TMP DP  RH WIND       PRES   REMARKS
LK YELLOWSTONE   N/A     71  24  17 CALM      30.42S
W YELLOWSTONE  NOT AVBL

$$
WYZ002>013-054>058-071-098>099-300200-
NORTHERN WYOMING

CITY           SKY/WX    TMP DP  RH WIND       PRES   REMARKS
JACKSON        NOT AVBL
CODY           MOCLDY    79  37  22 NW9G25    30.26R
GREYBULL       FAIR      88  35  15 S5        30.13S
WORLAND        FAIR      89  34  14 SE13      30.14F
SHERIDAN       FAIR      84  46  26 SE5       30.18F
BUFFALO        FAIR      82  39  21 S6        30.27S
GILLETTE       FAIR      82  43  25 SE10      30.22S
HULETT         FAIR      77  50  38 E18G24    30.27S
NEWCASTLE      FAIR      73  46  38 SE7       30.25S

$$
WYZ014>020-022>026-101>103-300200-
CENTRAL WYOMING

CITY           SKY/WX    TMP DP  RH WIND       PRES   REMARKS
BIG PINEY      FAIR      79  24  13 W5        30.35S
PINEDALE       LGT RAIN  79  28  15 E12G24    30.36S
DUBOIS         FAIR      72  28  20 SE15      30.37S
LANDER         FAIR      83  34  17 CALM      30.26S
RIVERTON       FAIR      83  33  16 E6        30.25F
CASPER         FAIR      81  41  24 E14       30.27S
DOUGLAS        FAIR      81  41  24 SE17      30.28R

$$
WYZ021-027>030-104>119-300200-
SOUTHERN WYOMING

CITY           SKY/WX    TMP DP  RH WIND       PRES   REMARKS
EVANSTON       FAIR      79  21  11 E8        30.34S
FORT BRIDGER   FAIR      81  19  10 NE5       30.37S
ROCK SPRINGS   FAIR      78  20  11 NE12      30.31S
DIXON          FAIR      76  33  20 W6        30.33S
RAWLINS        FAIR      76  25  15 E13       30.35S
SARATOGA       FAIR      73  32  21 E9        30.37S
LARAMIE        FAIR      71  29  21 E16G24    30.40S
CHEYENNE       FAIR      69  44  40 S8        30.37R
TORRINGTON     FAIR      77  53  43 SE7       30.23R
PINE BLUFFS    FAIR      72  52  49 SE16G23   30.32R

$$




USA.gov is the U.S. government's official web portal to all federal, state and local government web resources and services.